sim
Sign-in with your pilot id or email,
or register
Callsign
Passwort

Schedule Details

Flight Number: RYR1584 (2)
Departure: Leeds Bradford Airport (EGNM) at 07:05
Arrival: Fuerteventura Airport (GCFV) at 11:30
Route: Ryanair Passenger Schedule. Enter filed route here before submitting Pirep.

Weather Information
Getting current METAR information for EGNM 231050Z 16007KT 110V220 9999 FEW028 24/16 Q1018
Getting current METAR information for GCFV 231100Z 06015KT 9999 FEW020 24/19 Q1017

Schedule Frequency

Route Map